Simultaneous Nadir Overpasses (SNOs) Predictions

Prediction of SNOs between NOAA-19 and TERRA Satellite Orbit:

Table of predicted SNOs for the next 14.0 days since TLE Epoch: 9/7/2019
Index Date (NOAA-19) Time (NOAA-19) Lat,Lon (NOAA-19) SZA (NOAA-19 ) Date (TERRA) Time (TERRA) Lat,Lon (TERRA) SZA (TERRA ) Distance(km) Time Diff (sec)
1 09/09/2019 01:25:42 -78.75, 1.98 105.79 09/09/2019 01:26:40 -78.76, 2.00 105.76 0.77 58
2 09/09/2019 02:16:47 78.73, 169.39 74.22 09/09/2019 02:16:07 78.71, 169.41 74.20 1.28 40
3 09/11/2019 06:59:11 78.78, 98.51 75.09 09/11/2019 07:00:22 78.78, 98.70 75.13 4.17 71
4 09/11/2019 07:50:05 -78.73, -93.89 104.91 09/11/2019 07:49:50 -78.74, -93.87 104.91 1.31 15
5 09/13/2019 13:23:33 78.74, 2.79 75.96 09/13/2019 13:23:32 78.76, 2.81 75.99 2.79 1
6 09/15/2019 18:56:52 -78.75, 99.42 103.16 09/15/2019 18:57:16 -78.75, 99.32 103.16 2.29 24
7 09/15/2019 19:47:56 78.74, -93.20 76.85 09/15/2019 19:46:42 78.75, -93.08 76.85 2.89 74
8 09/18/2019 00:30:19 78.76,-163.89 77.73 09/18/2019 00:30:58 78.77,-164.03 77.74 3.15 39
9 09/18/2019 01:21:15 -78.74, 3.54 102.27 09/18/2019 01:20:26 -78.74, 3.44 102.30 2.20 49
10 09/20/2019 06:03:39 -78.78, -67.29 101.38 09/20/2019 06:04:41 -78.80, -67.28 101.34 2.23 62




NCC Satellite Simultaneous Nadir Overpasses (SNOs) Prediction Service
